• In Czech Republic
  • List of Countries
  • For 7 days
  • Water Temperature
  • Satellite Maps
  • Weather Map
  • Weather Widgets
  • user-avatar
    Login

    Hourly Weather Mazıdağı

    Today, 18 June, Monday

    Time Temperature Precipitation Wind Pressure Humidity
    00:00 +22°C° 0 mm 3 mps 664 mmHg 38%
    01:00 +21°C° 0 mm 3 mps 663 mmHg 42%
    02:00 +20°C° 0 mm 2 mps 663 mmHg 45%
    03:00 +20°C° 0 mm 2 mps 663 mmHg 49%
    04:00 +19°C° 0 mm 2 mps 663 mmHg 51%
    05:00 +19°C° 0 mm 2 mps 663 mmHg 53%
    06:00 +19°C° 0 mm 2 mps 663 mmHg 55%
    07:00 +20°C° 0 mm 2 mps 664 mmHg 51%
    08:00 +23°C° 0 mm 2 mps 664 mmHg 47%
    09:00 +24°C° 0 mm 2 mps 664 mmHg 43%
    10:00 +25°C° 0 mm 2 mps 664 mmHg 39%
    11:00 +26°C° 0 mm 3 mps 664 mmHg 35%
    12:00 +28°C° 0 mm 3 mps 664 mmHg 31%
    13:00 +29°C° 0 mm 4 mps 664 mmHg 29%
    14:00 +29°C° 0 mm 4 mps 664 mmHg 27%
    15:00 +30°C° 0 mm 4 mps 664 mmHg 25%
    16:00 +30°C° 0 mm 5 mps 664 mmHg 25%
    17:00 +30°C° 0 mm 5 mps 664 mmHg 25%
    18:00 +30°C° 0 mm 5 mps 663 mmHg 25%
    19:00 +29°C° 0 mm 5 mps 663 mmHg 28%
    20:00 +28°C° 0 mm 5 mps 664 mmHg 31%
    21:00 +26°C° 0 mm 5 mps 664 mmHg 33%
    22:00 +26°C° 0.1 mm 4 mps 664 mmHg 38%
    23:00 +25°C° 0.1 mm 4 mps 664 mmHg 42%

    Tomorrow, 19 June, Tuesday

    Time Temperature Precipitation Wind Pressure Humidity
    00:00 +23°C° 0.1 mm 4 mps 664 mmHg 46%
    01:00 +22°C° 0 mm 3 mps 664 mmHg 49%
    02:00 +22°C° 0 mm 3 mps 664 mmHg 52%
    03:00 +21°C° 0 mm 2 mps 664 mmHg 55%
    04:00 +21°C° 0 mm 2 mps 664 mmHg 56%
    05:00 +21°C° 0 mm 2 mps 664 mmHg 57%
    06:00 +22°C° 0 mm 1 mps 664 mmHg 59%
    07:00 +23°C° 0 mm 1 mps 664 mmHg 53%
    08:00 +24°C° 0 mm 1 mps 665 mmHg 48%
    09:00 +26°C° 0 mm 1 mps 665 mmHg 43%
    10:00 +27°C° 0 mm 1 mps 666 mmHg 38%
    11:00 +28°C° 0 mm 2 mps 666 mmHg 34%
    12:00 +29°C° 0 mm 2 mps 666 mmHg 29%
    13:00 +30°C° 0 mm 2 mps 666 mmHg 27%
    14:00 +31°C° 0 mm 3 mps 666 mmHg 24%
    15:00 +31°C° 0 mm 3 mps 666 mmHg 22%
    16:00 +31°C° 0 mm 3 mps 666 mmHg 22%
    17:00 +31°C° 0 mm 3 mps 666 mmHg 21%
    18:00 +31°C° 0 mm 3 mps 665 mmHg 21%
    19:00 +30°C° 0 mm 3 mps 665 mmHg 23%
    20:00 +29°C° 0 mm 3 mps 666 mmHg 25%
    21:00 +28°C° 0 mm 2 mps 666 mmHg 26%
    22:00 +27°C° 0 mm 3 mps 666 mmHg 29%
    23:00 +26°C° 0 mm 3 mps 666 mmHg 33%

    Day after tomorrow, 20 June, Wednesday

    Time Temperature Precipitation Wind Pressure Humidity
    00:00 +26°C° 0 mm 3 mps 666 mmHg 36%
    01:00 +25°C° 0 mm 3 mps 666 mmHg 41%
    02:00 +24°C° 0 mm 2 mps 666 mmHg 47%
    03:00 +24°C° 0 mm 2 mps 666 mmHg 52%
    04:00 +23°C° 0 mm 2 mps 666 mmHg 53%
    05:00 +23°C° 0 mm 2 mps 666 mmHg 55%
    06:00 +23°C° 0 mm 1 mps 666 mmHg 56%
    07:00 +25°C° 0 mm 2 mps 666 mmHg 49%
    08:00 +26°C° 0 mm 2 mps 667 mmHg 42%
    09:00 +27°C° 0 mm 3 mps 667 mmHg 35%
    10:00 +29°C° 0 mm 3 mps 668 mmHg 31%
    11:00 +30°C° 0 mm 4 mps 668 mmHg 27%
    12:00 +32°C° 0 mm 4 mps 668 mmHg 23%
    13:00 +32°C° 0 mm 5 mps 668 mmHg 21%
    14:00 +33°C° 0 mm 5 mps 667 mmHg 19%
    15:00 +33°C° 0 mm 5 mps 667 mmHg 17%
    16:00 +33°C° 0 mm 5 mps 667 mmHg 17%
    17:00 +32°C° 0 mm 5 mps 667 mmHg 17%
    18:00 +32°C° 0 mm 5 mps 667 mmHg 17%
    19:00 +30°C° 0 mm 4 mps 667 mmHg 20%
    20:00 +28°C° 0 mm 4 mps 667 mmHg 23%
    21:00 +27°C° 0 mm 3 mps 667 mmHg 26%
    22:00 +26°C° 0 mm 3 mps 667 mmHg 31%
    23:00 +26°C° 0 mm 3 mps 667 mmHg 36%

    21 June, Thursday

    Time Temperature Precipitation Wind Pressure Humidity
    00:00 +25°C° 0 mm 3 mps 667 mmHg 40%
    01:00 +24°C° 0 mm 2 mps 666 mmHg 44%
    02:00 +23°C° 0 mm 2 mps 666 mmHg 47%
    03:00 +23°C° 0 mm 1 mps 666 mmHg 50%
    04:00 +23°C° 0 mm 1 mps 666 mmHg 51%
    05:00 +23°C° 0 mm 1 mps 666 mmHg 52%
    06:00 +23°C° 0 mm 1 mps 666 mmHg 52%
    07:00 +24°C° 0 mm 1 mps 666 mmHg 47%
    08:00 +26°C° 0 mm 1 mps 667 mmHg 42%
    09:00 +27°C° 0 mm 1 mps 667 mmHg 36%
    10:00 +28°C° 0 mm 1 mps 667 mmHg 32%
    11:00 +30°C° 0 mm 1 mps 667 mmHg 28%
    12:00 +31°C° 0 mm 2 mps 667 mmHg 24%
    13:00 +32°C° 0 mm 2 mps 667 mmHg 22%
    14:00 +32°C° 0 mm 2 mps 667 mmHg 20%
    15:00 +34°C° 0 mm 3 mps 667 mmHg 18%
    16:00 +34°C° 0 mm 3 mps 666 mmHg 18%
    17:00 +34°C° 0 mm 3 mps 666 mmHg 18%
    18:00 +34°C° 0 mm 3 mps 666 mmHg 18%
    19:00 +31°C° 0 mm 3 mps 666 mmHg 20%
    20:00 +30°C° 0 mm 3 mps 666 mmHg 21%
    21:00 +29°C° 0 mm 3 mps 666 mmHg 23%
    22:00 +28°C° 0 mm 3 mps 666 mmHg 28%
    23:00 +27°C° 0 mm 3 mps 666 mmHg 34%

    22 June, Friday

    Time Temperature Precipitation Wind Pressure Humidity
    00:00 +26°C° 0 mm 4 mps 666 mmHg 39%
    01:00 +25°C° 0 mm 3 mps 665 mmHg 44%
    02:00 +25°C° 0 mm 3 mps 665 mmHg 48%
    03:00 +24°C° 0 mm 2 mps 665 mmHg 53%
    04:00 +24°C° 0 mm 2 mps 665 mmHg 55%
    05:00 +23°C° 0 mm 2 mps 665 mmHg 57%
    06:00 +23°C° 0 mm 2 mps 665 mmHg 58%
    07:00 +24°C° 0 mm 2 mps 665 mmHg 53%
    08:00 +26°C° 0 mm 2 mps 665 mmHg 47%
    09:00 +27°C° 0 mm 2 mps 665 mmHg 42%
    10:00 +29°C° 0 mm 2 mps 665 mmHg 37%
    11:00 +30°C° 0 mm 2 mps 665 mmHg 32%
    12:00 +31°C° 0 mm 3 mps 665 mmHg 27%
    13:00 +33°C° 0 mm 3 mps 665 mmHg 24%
    14:00 +34°C° 0 mm 3 mps 665 mmHg 21%
    15:00 +34°C° 0 mm 3 mps 665 mmHg 19%
    16:00 +34°C° 0 mm 4 mps 664 mmHg 18%
    17:00 +34°C° 0 mm 4 mps 664 mmHg 18%
    18:00 +34°C° 0 mm 4 mps 664 mmHg 18%
    19:00 +32°C° 0 mm 4 mps 664 mmHg 20%
    20:00 +30°C° 0 mm 3 mps 664 mmHg 21%
    21:00 +29°C° 0 mm 3 mps 664 mmHg 23%
    22:00 +28°C° 0 mm 3 mps 664 mmHg 29%
    23:00 +27°C° 0 mm 3 mps 664 mmHg 34%

    23 June, Saturday

    Time Temperature Precipitation Wind Pressure Humidity
    00:00 +26°C° 0 mm 4 mps 664 mmHg 39%
    01:00 +26°C° 0 mm 3 mps 663 mmHg 43%
    02:00 +25°C° 0 mm 3 mps 663 mmHg 47%
    03:00 +24°C° 0 mm 2 mps 663 mmHg 50%
    04:00 +24°C° 0 mm 2 mps 663 mmHg 51%
    05:00 +24°C° 0 mm 2 mps 663 mmHg 52%
    06:00 +24°C° 0 mm 1 mps 663 mmHg 53%
    07:00 +25°C° 0 mm 2 mps 664 mmHg 47%
    08:00 +27°C° 0 mm 2 mps 664 mmHg 40%
    09:00 +29°C° 0 mm 2 mps 664 mmHg 34%
    10:00 +30°C° 0 mm 2 mps 665 mmHg 30%
    11:00 +31°C° 0 mm 1 mps 665 mmHg 26%
    12:00 +33°C° 0 mm 1 mps 665 mmHg 22%
    13:00 +34°C° 0 mm 1 mps 665 mmHg 21%
    14:00 +34°C° 0 mm 1 mps 664 mmHg 19%
    15:00 +35°C° 0 mm 1 mps 664 mmHg 18%
    16:00 +36°C° 0 mm 2 mps 664 mmHg 17%
    17:00 +36°C° 0 mm 2 mps 664 mmHg 17%
    18:00 +36°C° 0 mm 2 mps 664 mmHg 17%
    19:00 +34°C° 0 mm 2 mps 664 mmHg 19%
    20:00 +32°C° 0 mm 2 mps 664 mmHg 20%
    21:00 +31°C° 0 mm 2 mps 664 mmHg 22%
    22:00 +30°C° 0 mm 2 mps 664 mmHg 24%
    23:00 +29°C° 0 mm 2 mps 664 mmHg 27%
    Show more